Location: Cadenet
(43.7345°N, 5.3750°E)
Time: 16:32:24
(UTC+00:00)

CZ-4C R/B - Pass Details

Date: 18 February 2020
Orbit: 641 x 1360 km, 63.4° (Epoch: 31 March)

Event Time Altitude Azimuth Distance (km) Brightness Sun altitude
Exits shadow 04:02:08 27° 345° (NNW) 1,598 3.5 -28.0°
Drops below altitude 10° 04:06:18 10° 24° (NNE) 2,683 5.2 -27.2°
Sets 04:09:29 0° 35° (NE) 3,767 6.2 -26.7°
